Temp
61 62 61 61 61 61 60 59 58 58 59 58 56 56 55 57 58 58 59 63 64 63 63 63 60 61 59 58 58 58 58 53 43 42 44 44 44 48 50 53 53 53 53
61 60 60 60 60 59 59 58 58 57 59 57 55 54 55 56 57 58 62 62 63 61 61 59 59 59 58 58 57 54 52 52 47 41 41 40 42 45 47 49 50 52 52
60 60 59 59 58 58 57 57 57 58 58 53 52 53 53 55 56 60 61 60 61 61 59 58 57 58 56 55 54 51 50 50 46 42 39 42 42 45 47 49 51 51 53
59 59 57 58 57 57 57 57 56 57 55 52 52 53 54 56 57 59 60 59 59 59 58 58 58 57 55 53 51 49 48 45 44 41 40 40 41 44 49 47 46 49 48
58 58 57 57 57 57 56 55 56 56 56 54 53 52 54 55 58 58 57 57 56 56 56 56 56 56 56 54 50 48 46 45 43 41 40 40 43 47 47 48 45 46 47
57 57 57 57 57 56 55 55 55 55 55 53 51 51 53 55 57 56 56 55 55 54 53 53 54 55 55 54 53 52 51 46 45 44 44 46 48 48 48 47 44 42 38
56 57 57 57 55 54 54 53 53 53 53 52 50 50 52 54 56 56 56 54 53 53 52 52 51 52 52 53 55 56 55 55 54 53 50 49 48 49 48 46 45 42 40
55 56 57 56 53 53 52 51 52 53 52 49 48 49 54 55 56 55 54 52 52 52 52 51 50 51 54 54 53 52 52 53 53 54 50 50 50 50 49 46 44 42 43
52 51 52 51 49 49 47 48 51 52 48 47 49 54 53 51 53 52 50 48 47 48 50 50 52 53 54 53 48 45 45 45 50 49 49 49 50 50 49 46 43 40 37
48 47 48 48 47 46 47 47 51 49 46 50 51 52 51 49 52 51 49 47 46 48 51 52 53 52 53 52 47 45 42 43 44 45 45 46 47 47 49 46 44 40 38
46 46 46 46 47 48 48 49 48 45 47 48 48 48 48 49 49 51 51 51 50 50 50 50 51 52 51 51 49 46 45 47 46 44 43 43 43 43 42 43 43 41 37
44 43 44 45 47 48 48 46 45 46 47 47 47 47 48 49 51 54 54 54 53 50 48 49 50 51 50 50 49 50 49 48 46 44 42 41 40 40 41 41 41 42 42
42 42 43 45 47 48 46 44 45 48 47 46 46 46 46 48 49 52 53 52 51 48 49 49 49 49 49 49 50 50 49 46 44 41 40 40 41 42 43 41 42 42 42
42 42 43 44 46 48 46 45 48 47 46 46 45 44 44 45 47 49 49 49 50 48 49 47 48 48 49 49 48 48 47 45 43 42 41 42 44 42 42 42 40 40 38
42 43 44 46 46 44 46 48 48 48 49 46 45 45 44 45 47 49 49 48 47 47 46 45 44 44 43 42 43 44 44 44 43 43 42 41 41 41 41 42 41 40 38
43 44 45 45 44 45 47 46 49 49 48 48 49 50 50 51 51 50 49 48 48 49 46 44 43 43 42 43 43 43 44 44 44 44 43 42 40 40 40 40 40 39 37
46 47 44 44 46 46 46 45 43 46 47 49 50 50 50 49 48 48 49 49 50 50 45 44 43 43 43 43 43 43 42 43 44 43 42 41 41 41 40 39 39 38 37
45 44 44 46 46 46 45 44 44 43 41 42 47 47 47 48 48 49 49 49 46 47 45 43 43 44 43 43 42 42 43 43 43 43 42 41 41 39 38 38 38 37 36
45 46 46 45 45 46 45 44 44 43 41 41 42 45 47 48 49 50 50 46 43 43 44 43 44 44 43 43 43 42 42 42 42 41 41 40 40 39 37 37 37 39 38
46 46 46 45 44 44 44 43 42 41 41 42 42 42 45 47 46 46 47 45 44 44 44 43 43 43 42 42 41 41 41 42 41 41 41 41 40 40 38 38 38 37 37
46 45 46 45 44 44 44 43 42 43 43 42 43 46 48 46 45 44 44 44 44 44 43 43 42 42 42 42 42 42 42 41 41 41 40 40 40 38 40 39 38 38 38
46 45 44 44 44 43 43 44 45 45 44 43 43 45 46 46 45 44 44 45 45 45 45 43 42 42 42 42 42 42 41 40 40 40 40 40 40 40 40 39 39 38 37
45 44 44 43 44 44 44 44 45 45 43 43 43 44 44 44 43 43 43 44 44 44 45 44 43 42 44 44 45 43 41 40 41 41 40 39 39 39 39 38 38 37 36
45 44 43 43 43 42 43 44 45 44 44 44 44 44 44 43 42 43 43 44 44 44 44 43 43 43 43 43 44 43 44 44 44 43 43 40 39 40 39 38 38 37 36
44 43 43 42 42 42 44 45 45 45 45 44 44 44 43 43 42 43 43 43 43 42 42 42 43 44 43 43 42 41 40 41 43 43 43 42 40 40 38 37 37 37 37
43 43 42 42 42 44 45 45 45 44 44 44 44 43 42 42 42 43 42 42 41 41 41 41 43 44 43 42 41 39 39 40 42 43 42 41 39 38 38 38 38 36 36
MSLP
1012.13 1011.57 1011.00 1010.64 1010.31 1009.90 1009.35 1008.91 1008.35 1007.81 1007.03 1006.30 1005.85 1005.35 1004.73 1003.73 1003.06 1002.48 1001.80 1001.36 1001.26 1001.51 1001.78 1002.41 1003.31 1003.93 1005.18 1006.46 1007.37 1008.07 1009.34 1010.87 1012.88 1016.24 1016.85 1017.36 1017.41 1017.40 1017.59 1017.61 1018.01 1018.33 1018.76
1011.90 1011.41 1010.91 1010.45 1009.97 1009.46 1008.87 1008.47 1007.87 1007.01 1006.12 1005.54 1005.33 1004.81 1003.78 1002.93 1002.08 1001.09 1000.30 1000.33 1000.59 1001.08 1001.63 1002.59 1003.49 1004.42 1005.49 1006.51 1007.37 1008.75 1010.08 1011.21 1012.37 1015.25 1017.14 1017.82 1018.16 1018.31 1018.23 1018.40 1018.87 1019.21 1019.37
1011.64 1011.09 1010.66 1010.19 1009.67 1009.20 1008.68 1007.98 1007.19 1006.33 1005.47 1004.98 1004.65 1003.81 1002.84 1001.69 1000.66 999.31 999.32 999.65 1000.36 1000.96 1001.77 1002.68 1003.58 1004.61 1005.66 1006.84 1008.03 1009.60 1010.54 1012.19 1013.81 1014.86 1016.86 1018.05 1018.63 1018.72 1018.45 1018.88 1019.24 1019.40 1019.97
1011.32 1010.84 1010.34 1009.80 1009.35 1008.86 1008.24 1007.49 1006.51 1005.53 1004.90 1004.11 1003.64 1002.85 1001.97 1000.86 999.76 998.18 998.82 999.67 1000.31 1001.00 1001.91 1002.94 1003.92 1004.79 1005.70 1007.02 1008.68 1009.70 1011.46 1012.85 1014.26 1015.70 1017.32 1018.26 1018.54 1018.69 1018.91 1019.20 1019.44 1019.99 1020.57
1010.93 1010.42 1009.91 1009.45 1008.84 1008.25 1007.62 1006.81 1005.89 1005.10 1004.18 1003.64 1002.90 1002.26 1001.41 1000.66 999.25 998.35 998.55 999.69 1000.70 1001.68 1002.46 1003.46 1004.06 1005.23 1006.44 1007.28 1008.52 1010.67 1012.09 1013.16 1014.64 1016.26 1017.57 1018.00 1018.38 1018.59 1018.92 1019.30 1019.81 1020.61 1021.11
1010.66 1009.98 1009.44 1008.91 1008.30 1007.79 1007.23 1006.35 1005.57 1004.52 1003.76 1003.03 1002.38 1001.97 1000.85 999.96 999.88 998.22 999.44 999.87 1001.22 1002.50 1003.03 1003.98 1005.29 1006.42 1007.53 1008.56 1010.02 1011.51 1012.55 1013.30 1014.86 1016.07 1016.87 1017.49 1017.87 1018.55 1018.93 1019.46 1020.29 1020.72 1021.02
1010.26 1009.68 1008.95 1008.46 1008.07 1007.57 1006.94 1006.10 1005.22 1004.36 1003.59 1002.60 1002.14 1001.33 1000.38 1000.15 999.83 999.69 1000.47 1001.02 1001.93 1003.20 1004.07 1005.17 1006.64 1007.54 1008.61 1009.75 1011.12 1012.33 1013.40 1014.35 1015.15 1015.80 1016.59 1017.43 1018.12 1018.72 1019.31 1019.81 1020.23 1020.76 1021.40
1009.85 1009.32 1008.60 1008.20 1007.81 1007.51 1006.88 1006.17 1004.84 1004.03 1003.41 1002.56 1001.47 1000.19 999.51 999.59 999.83 1000.33 1001.14 1002.04 1003.00 1004.25 1005.25 1006.16 1007.54 1008.61 1009.71 1010.29 1011.70 1013.10 1014.28 1015.27 1015.97 1016.76 1017.42 1018.25 1018.87 1019.33 1019.75 1020.39 1021.13 1021.68 1022.16
1009.84 1009.37 1008.85 1008.77 1008.30 1007.85 1007.22 1006.31 1004.93 1004.09 1003.32 1002.46 1001.26 1000.14 1000.37 1001.20 1001.21 1001.76 1002.34 1003.37 1004.88 1006.06 1007.15 1008.03 1008.76 1009.97 1011.16 1011.56 1012.58 1014.18 1016.05 1017.36 1018.08 1018.47 1019.25 1019.80 1020.06 1020.34 1020.52 1020.77 1021.24 1021.91 1022.61
1009.87 1009.32 1008.96 1008.54 1008.26 1007.82 1007.05 1005.98 1004.95 1004.45 1003.98 1002.64 1001.26 1001.85 1001.83 1002.33 1002.88 1003.11 1003.86 1005.01 1006.08 1007.59 1008.78 1009.80 1010.47 1011.14 1012.57 1013.35 1013.70 1015.24 1016.54 1018.26 1019.15 1019.98 1020.38 1020.83 1021.18 1021.34 1021.32 1021.35 1021.50 1021.96 1022.68
1009.61 1009.15 1008.56 1008.06 1007.79 1007.41 1006.91 1006.01 1005.29 1004.70 1004.05 1003.44 1002.84 1003.53 1003.45 1003.88 1004.34 1004.70 1005.27 1005.97 1007.06 1008.43 1009.76 1011.16 1012.31 1012.72 1013.78 1014.80 1015.24 1016.23 1017.55 1019.06 1019.92 1020.54 1021.21 1021.79 1022.29 1022.64 1022.92 1023.01 1022.99 1023.06 1023.43
1009.28 1008.77 1008.06 1007.82 1007.31 1006.95 1006.53 1005.75 1005.09 1004.28 1004.22 1004.14 1004.00 1004.70 1005.29 1005.71 1005.69 1006.41 1006.78 1007.05 1008.37 1009.00 1010.99 1012.35 1013.57 1014.40 1015.27 1016.00 1016.83 1017.97 1018.92 1019.68 1020.46 1021.17 1021.81 1022.41 1022.89 1023.39 1023.88 1024.10 1024.26 1024.34 1024.55
1008.85 1008.25 1007.82 1007.52 1006.99 1006.70 1006.19 1005.64 1005.08 1004.70 1004.80 1005.15 1005.27 1005.36 1007.03 1007.35 1007.72 1007.95 1008.79 1008.96 1009.89 1010.76 1012.40 1013.91 1015.10 1015.83 1016.54 1017.45 1018.35 1019.14 1019.82 1020.48 1021.15 1021.71 1022.36 1023.00 1023.55 1024.04 1024.39 1024.73 1025.06 1025.30 1025.35
1008.23 1007.76 1007.46 1007.08 1006.69 1006.34 1006.13 1005.62 1005.26 1005.40 1005.46 1005.91 1006.27 1007.45 1008.29 1008.65 1009.11 1009.89 1010.61 1011.15 1011.65 1012.94 1014.48 1015.49 1016.15 1016.95 1017.78 1018.68 1019.48 1020.17 1020.80 1021.36 1021.81 1022.37 1022.95 1023.57 1023.95 1024.26 1024.54 1024.82 1025.20 1025.60 1025.89
1007.61 1007.38 1007.20 1006.87 1006.65 1006.49 1006.05 1005.58 1005.77 1006.15 1006.10 1006.12 1007.28 1008.30 1008.83 1009.65 1010.71 1011.14 1011.42 1012.31 1013.21 1014.38 1015.29 1016.26 1017.24 1018.31 1019.17 1020.03 1020.71 1021.25 1021.75 1022.19 1022.50 1023.09 1023.63 1024.14 1024.55 1024.83 1025.07 1025.27 1025.50 1025.76 1026.00
1007.09 1007.04 1006.93 1006.88 1006.75 1006.46 1006.21 1006.42 1006.74 1006.97 1007.49 1007.90 1008.32 1008.80 1010.09 1010.76 1011.62 1012.37 1013.06 1013.85 1014.60 1015.27 1015.84 1017.03 1018.27 1019.13 1019.87 1020.64 1021.25 1021.88 1022.39 1022.83 1023.34 1023.76 1024.19 1024.62 1025.00 1025.33 1025.57 1025.79 1025.99 1026.19 1026.41
1006.83 1006.83 1007.03 1006.95 1006.64 1006.71 1006.82 1007.20 1007.67 1008.89 1009.31 1009.44 1009.81 1010.44 1011.12 1012.24 1013.18 1013.92 1014.42 1015.10 1015.77 1016.10 1016.83 1018.19 1019.04 1019.92 1020.70 1021.33 1021.96 1022.56 1023.17 1023.75 1024.10 1024.46 1024.87 1025.22 1025.51 1025.73 1026.01 1026.24 1026.47 1026.75 1026.99
1007.16 1007.19 1007.03 1006.96 1007.16 1007.40 1007.64 1008.18 1008.67 1009.65 1010.74 1011.57 1012.02 1012.36 1013.28 1013.91 1014.52 1015.06 1015.40 1015.81 1016.83 1017.85 1018.44 1019.17 1019.98 1020.76 1021.46 1022.19 1022.86 1023.43 1024.01 1024.45 1024.79 1025.10 1025.44 1025.77 1026.09 1026.40 1026.70 1026.97 1027.22 1027.44 1027.67
1007.12 1007.14 1007.30 1007.51 1007.93 1008.21 1008.61 1009.27 1009.92 1010.89 1011.95 1012.82 1013.70 1014.64 1015.11 1015.45 1015.84 1016.23 1016.51 1016.83 1017.96 1018.88 1019.59 1020.26 1020.97 1021.66 1022.40 1023.02 1023.62 1024.22 1024.69 1025.13 1025.50 1025.82 1026.13 1026.39 1026.78 1027.18 1027.60 1027.85 1027.96 1028.09 1028.34
1007.41 1007.70 1008.08 1008.29 1008.70 1009.12 1009.62 1010.17 1011.05 1012.01 1012.95 1013.81 1014.68 1015.43 1015.98 1016.10 1016.63 1017.23 1017.86 1018.45 1019.08 1019.85 1020.59 1021.24 1021.99 1022.66 1023.33 1023.91 1024.52 1025.07 1025.40 1025.81 1026.13 1026.42 1026.76 1027.10 1027.45 1027.78 1028.07 1028.32 1028.47 1028.67 1028.85
1008.04 1008.41 1008.64 1009.02 1009.52 1010.03 1010.55 1011.08 1011.85 1012.78 1013.67 1014.70 1015.58 1016.17 1016.45 1016.66 1017.44 1018.27 1018.96 1019.54 1020.08 1020.81 1021.54 1022.25 1022.98 1023.58 1024.18 1024.67 1025.10 1025.56 1025.96 1026.38 1026.74 1027.10 1027.42 1027.78 1028.12 1028.44 1028.70 1028.81 1028.98 1029.14 1029.25
1008.80 1009.13 1009.49 1009.91 1010.39 1010.93 1011.44 1011.97 1012.70 1013.49 1014.42 1015.18 1016.19 1016.98 1017.36 1017.64 1018.38 1019.17 1019.86 1020.40 1021.09 1021.79 1022.53 1023.14 1023.76 1024.31 1024.82 1025.20 1025.65 1026.14 1026.54 1026.95 1027.32 1027.75 1028.05 1028.40 1028.69 1028.90 1029.15 1029.33 1029.53 1029.70 1029.81
1009.60 1009.90 1010.28 1010.73 1011.31 1011.81 1012.25 1012.97 1013.69 1014.38 1015.27 1016.27 1017.01 1017.56 1018.14 1018.71 1019.47 1020.10 1020.70 1021.38 1022.06 1022.73 1023.43 1023.89 1024.43 1024.96 1025.38 1025.79 1026.24 1026.67 1027.05 1027.46 1027.85 1028.21 1028.59 1028.90 1029.17 1029.38 1029.67 1029.93 1030.20 1030.49 1030.62
1010.50 1010.89 1011.28 1011.88 1012.40 1012.92 1013.28 1013.93 1014.59 1015.27 1016.06 1016.78 1017.51 1018.24 1018.92 1019.66 1020.33 1020.95 1021.62 1022.30 1022.94 1023.64 1024.26 1024.67 1025.12 1025.58 1026.00 1026.51 1026.89 1027.29 1027.60 1027.93 1028.28 1028.65 1028.97 1029.34 1029.66 1029.96 1030.25 1030.52 1030.83 1031.12 1031.30
1011.52 1011.88 1012.35 1012.87 1013.31 1013.60 1014.02 1014.55 1015.14 1015.77 1016.63 1017.46 1018.19 1018.90 1019.73 1020.42 1021.07 1021.81 1022.50 1023.13 1023.79 1024.40 1024.97 1025.42 1025.85 1026.31 1026.82 1027.21 1027.63 1027.99 1028.30 1028.51 1028.82 1029.15 1029.51 1029.85 1030.21 1030.52 1030.87 1031.10 1031.33 1031.54 1031.70
1012.53 1012.89 1013.32 1013.79 1014.12 1014.39 1014.68 1015.11 1015.71 1016.51 1017.34 1018.16 1018.89 1019.62 1020.33 1021.03 1021.80 1022.51 1023.22 1023.88 1024.55 1025.12 1025.63 1026.18 1026.55 1026.94 1027.49 1027.97 1028.38 1028.77 1029.00 1029.18 1029.45 1029.76 1030.12 1030.49 1030.86 1031.20 1031.42 1031.65 1031.86 1032.09 1032.32
Wind_Speed
15 16 15 14 15 15 14 14 15 16 16 15 13 15 16 16 14 16 18 14 14 13 10 12 11 13 10 10 9 5 10 10 14 6 3 5 7 9 8 10 11 12 12
16 15 16 15 16 16 16 16 17 18 15 13 13 16 16 15 16 17 13 12 12 9 8 13 14 10 13 12 9 11 10 11 17 16 5 4 6 6 10 12 10 9 10
16 16 15 16 16 16 16 17 18 17 16 13 15 15 16 15 16 10 9 9 11 11 12 14 14 15 14 11 13 12 12 12 11 12 8 3 3 2 7 7 8 9 9
17 17 15 15 14 14 15 17 18 18 15 14 15 14 15 12 14 10 9 8 10 11 14 14 15 16 17 16 13 16 14 13 13 11 9 7 4 2 5 6 7 6 6
18 17 15 15 15 14 14 17 18 17 15 14 15 15 14 6 10 5 13 14 14 13 14 14 15 20 24 21 14 14 16 14 12 11 8 6 4 6 6 6 7 6 6
17 17 15 15 16 15 15 16 17 17 15 15 14 14 13 8 15 20 15 16 17 15 16 19 19 27 26 29 29 24 17 16 15 10 9 8 8 7 6 6 6 6 4
17 18 17 17 16 15 16 16 16 16 15 15 15 13 13 8 19 24 22 15 18 18 19 19 16 17 23 21 30 30 26 24 18 10 11 9 9 7 6 5 7 8 7
17 18 18 16 15 15 15 17 17 14 15 15 16 15 3 13 27 31 29 18 18 20 20 21 19 20 21 24 22 21 19 16 14 11 13 11 9 9 8 9 10 9 6
18 18 17 16 17 16 17 16 17 15 15 15 15 6 17 17 31 33 26 21 21 19 18 19 21 22 30 33 24 24 21 19 24 28 24 22 19 14 8 5 5 7 6
17 15 15 14 13 14 14 16 14 13 13 10 12 11 22 19 31 34 26 17 20 17 18 20 29 26 32 30 23 20 21 16 16 15 14 16 17 17 18 10 6 5 8
15 14 13 13 13 13 12 13 12 12 9 8 16 13 14 18 23 31 29 18 17 17 15 15 15 32 31 29 27 17 19 17 20 13 11 10 10 10 9 10 11 8 8
13 13 13 11 10 10 12 10 12 6 6 11 15 15 11 13 24 25 27 30 27 19 17 15 19 31 33 32 24 30 27 19 11 10 10 9 9 9 9 10 12 10 9
12 12 10 11 10 10 8 9 7 6 8 10 12 16 11 12 15 31 31 34 34 22 16 27 33 34 34 27 28 25 19 10 10 10 10 9 8 8 10 10 10 12 11
11 10 8 9 9 7 6 6 2 5 8 11 14 13 11 11 13 14 16 21 34 26 29 19 23 24 24 21 16 14 10 10 10 10 9 8 7 7 6 6 7 7 8
9 7 7 6 5 5 6 2 6 5 6 12 12 11 12 13 12 19 19 15 14 22 20 13 12 12 12 12 11 11 10 9 9 9 8 8 7 7 7 5 6 6 7
4 4 4 2 3 3 6 10 20 18 19 20 22 16 13 24 27 27 31 32 29 26 15 13 12 11 11 10 10 10 9 11 8 8 8 8 7 7 7 6 6 7 7
3 2 0 3 1 6 8 9 13 16 20 19 27 28 29 29 32 31 29 26 24 20 13 12 11 11 10 10 10 9 9 8 8 8 8 8 7 7 8 7 7 7 7
4 1 2 5 6 6 10 10 12 14 13 12 24 28 32 31 29 26 26 22 15 13 11 11 11 10 10 10 9 9 8 7 7 8 8 8 7 7 8 8 7 8 7
1 3 7 8 7 10 11 12 13 15 14 14 16 21 24 27 23 20 19 13 12 11 10 11 10 10 9 9 9 8 8 8 8 8 8 7 8 8 9 8 8 13 11
8 16 11 8 8 10 11 13 14 14 13 12 12 12 12 14 11 11 11 11 11 10 10 10 9 9 9 9 8 8 8 8 8 7 8 7 7 7 7 7 6 6 6
7 8 14 9 9 10 11 13 12 12 12 12 11 9 15 11 11 11 10 10 10 10 10 10 9 9 8 8 7 7 8 8 8 8 7 7 7 7 6 6 6 5 5
7 7 9 9 9 11 11 11 12 13 13 13 11 12 19 11 11 11 11 11 10 10 9 9 9 8 7 6 7 7 8 8 7 7 7 7 6 6 5 5 5 5 5
8 9 10 10 10 14 11 11 11 12 13 12 11 10 10 11 11 11 11 11 10 9 9 9 9 8 7 7 7 6 8 7 7 7 7 6 5 5 5 5 6 6 6
9 10 10 10 9 9 10 12 12 15 13 12 11 11 11 11 11 13 11 10 10 9 9 8 8 10 9 8 7 7 7 8 7 7 8 7 6 6 5 6 6 7 5
9 9 9 9 9 9 12 11 11 12 12 11 11 11 11 11 11 11 11 10 10 9 10 8 7 11 11 12 11 11 11 12 9 9 6 7 8 8 6 4 5 5 6
8 9 9 8 8 8 9 10 11 11 11 10 10 10 11 11 11 11 10 11 9 9 10 8 10 13 14 12 13 14 14 12 10 12 6 6 6 5 5 6 7 5 6
Wind_Direction
321 314 308 302 306 305 304 311 305 302 300 292 294 290 289 281 272 261 256 232 226 211 204 194 147 133 142 151 150 128 125 118 117 106 77 55 57 87 88 84 82 78 73
318 313 312 308 304 307 308 307 310 304 301 298 307 291 282 279 269 259 237 218 202 187 181 141 132 136 137 139 116 110 117 121 130 128 111 74 78 69 92 85 80 75 76
315 311 313 310 311 309 306 305 306 304 306 303 288 293 290 289 303 249 189 172 168 150 138 138 143 134 121 119 110 115 108 111 117 117 116 101 96 132 103 112 97 92 91
312 315 313 312 309 306 306 306 305 308 305 303 299 297 291 287 283 245 168 148 130 123 129 136 136 128 123 116 111 109 114 113 111 106 107 113 106 115 130 120 108 107 108
310 311 313 310 304 303 305 305 306 308 305 309 303 306 298 318 310 152 122 114 115 116 120 113 121 114 112 117 113 119 122 118 115 117 117 118 143 159 133 111 97 95 86
308 307 308 312 311 315 311 303 308 306 310 305 309 303 311 338 293 116 116 115 105 104 105 99 101 104 105 109 113 118 121 123 124 127 130 148 118 110 131 130 141 161 109
303 303 308 310 314 317 310 309 308 308 309 306 307 299 295 283 157 120 117 111 109 111 102 102 102 104 107 110 112 115 114 115 116 130 117 109 112 102 104 99 72 73 82
304 303 304 315 320 316 319 315 309 312 312 315 307 300 156 114 107 103 98 99 96 99 102 102 107 109 113 109 102 94 83 78 78 81 78 82 81 72 77 87 96 99 85
322 321 322 321 315 315 312 307 309 315 319 314 295 144 107 101 103 100 96 88 86 88 92 103 108 108 109 108 100 97 91 86 84 86 88 87 85 90 118 135 128 107 92
307 304 306 297 297 301 302 302 307 319 312 313 66 85 110 107 105 99 98 100 98 99 98 96 102 105 106 104 103 108 101 100 101 97 87 78 68 59 52 44 40 113 133
297 297 289 287 296 298 294 295 308 307 311 70 73 69 82 98 104 105 112 108 107 102 97 96 96 100 101 102 99 97 105 112 103 97 92 86 79 73 66 53 46 67 78
299 295 288 292 288 297 295 305 305 285 95 91 92 86 69 88 101 103 101 103 105 101 98 96 96 100 101 100 99 107 110 107 103 99 96 90 84 77 74 74 70 67 61
292 286 288 288 288 293 300 310 324 88 100 94 93 85 82 86 88 94 97 98 97 93 96 105 105 102 100 97 103 105 101 98 99 95 90 90 91 98 101 96 88 76 66
281 275 281 283 289 304 310 292 86 104 110 108 96 94 97 96 96 96 96 96 97 98 105 102 101 99 98 101 96 90 90 91 93 94 94 95 97 95 98 106 108 106 93
268 264 268 268 301 305 293 75 84 57 99 120 110 112 118 105 104 112 113 111 108 109 110 103 96 93 94 93 93 94 94 95 94 95 97 98 95 92 87 83 81 78 79
231 237 247 291 290 289 92 85 77 80 90 104 115 114 96 108 112 108 107 110 114 116 102 100 101 99 98 99 96 95 92 92 93 97 96 96 97 95 91 82 75 73 73
177 140 347 272 233 107 104 102 101 80 87 104 106 108 108 112 109 112 112 110 108 105 97 100 100 99 101 99 97 95 93 93 97 93 95 96 95 91 89 83 78 76 75
75 65 283 98 96 112 103 103 101 102 100 92 98 108 108 112 113 114 111 102 94 86 95 99 100 100 97 97 97 99 99 97 94 93 90 87 84 83 80 75 70 70 68
247 102 87 93 98 105 104 105 105 102 103 105 107 99 104 109 108 104 99 95 102 100 98 97 97 99 101 101 98 97 96 94 94 93 89 87 87 87 87 80 78 81 76
83 102 99 100 103 107 111 110 108 107 110 109 107 112 120 111 103 98 94 99 99 99 99 99 98 96 99 99 97 103 105 99 96 92 89 87 86 82 81 81 79 77 77
89 98 109 97 103 109 111 111 110 115 111 108 111 119 116 110 106 100 102 100 100 100 101 100 102 102 101 107 105 102 100 98 94 92 89 87 85 87 85 81 76 71 73
91 98 103 98 103 106 109 111 113 112 108 105 106 108 109 101 102 102 101 98 96 96 99 103 102 100 102 103 103 106 104 100 97 94 92 89 88 88 84 83 84 74 63
92 94 92 94 98 100 102 104 107 106 105 109 113 110 106 103 103 103 101 99 100 101 101 103 102 103 99 96 96 100 104 102 100 99 100 99 94 88 83 80 73 69 52
88 96 97 93 95 101 108 108 106 107 113 110 111 110 109 106 107 104 102 103 101 100 100 101 103 106 103 98 97 95 100 101 99 100 94 95 92 88 83 81 82 87 83
86 93 96 97 101 107 109 109 111 108 107 110 112 111 110 109 107 105 105 105 105 104 102 104 104 105 104 105 101 95 94 92 95 96 95 94 93 89 84 77 77 75 70
81 88 94 98 102 105 107 109 108 110 112 112 113 112 113 111 111 110 110 108 108 105 105 104 111 111 108 106 105 102 98 92 94 94 93 90 90 86 85 84 81 73 75